TimeCST,TemperatureF,Dew PointF,Humidity,Sea Level PressureIn,VisibilityMPH,Wind Direction,Wind SpeedMPH,Gust SpeedMPH,PrecipitationIn,Events,Conditions,WindDirDegrees,DateUTC
12:15 AM,18.1,8.2,65,30.39,10.0,Calm,Calm,-,N/A,,Clear,0,2013-11-13 06:15:00
12:35 AM,17.8,8.4,67,30.38,10.0,Calm,Calm,-,N/A,,Clear,0,2013-11-13 06:35:00
12:55 AM,17.6,8.6,68,30.38,10.0,Calm,Calm,-,N/A,,Clear,0,2013-11-13 06:55:00
1:15 AM,17.6,9.1,69,30.37,10.0,Calm,Calm,-,N/A,,Clear,0,2013-11-13 07:15:00
1:35 AM,17.2,9.3,71,30.36,10.0,Calm,Calm,-,N/A,,Clear,0,2013-11-13 07:35:00
1:55 AM,17.4,9.5,71,30.35,10.0,SW,3.5,-,N/A,,Clear,220,2013-11-13 07:55:00
2:15 AM,16.3,9.5,74,30.34,10.0,Calm,Calm,-,N/A,,Clear,0,2013-11-13 08:15:00
2:35 AM,14.9,9.5,79,30.34,10.0,Calm,Calm,-,N/A,,Clear,0,2013-11-13 08:35:00
2:55 AM,14.4,9.5,81,30.33,10.0,Calm,Calm,-,N/A,,Clear,0,2013-11-13 08:55:00
3:15 AM,14.4,10.2,84,30.32,10.0,Calm,Calm,-,N/A,,Clear,0,2013-11-13 09:15:00
3:35 AM,14.9,10.4,82,30.31,10.0,Calm,Calm,-,N/A,,Clear,0,2013-11-13 09:35:00
3:55 AM,14.9,10.6,83,30.30,10.0,Calm,Calm,-,N/A,,Clear,0,2013-11-13 09:55:00
4:15 AM,15.3,10.6,82,30.29,10.0,Calm,Calm,-,N/A,,Clear,0,2013-11-13 10:15:00
4:35 AM,15.3,10.6,82,30.28,10.0,Calm,Calm,-,N/A,,Clear,0,2013-11-13 10:35:00
4:55 AM,15.4,10.8,82,30.27,10.0,SSW,3.5,-,N/A,,Clear,200,2013-11-13 10:55:00
5:15 AM,15.8,10.8,80,30.26,10.0,Calm,Calm,-,N/A,,Clear,0,2013-11-13 11:15:00
5:35 AM,16.3,11.1,80,30.25,10.0,South,3.5,-,N/A,,Clear,190,2013-11-13 11:35:00
5:55 AM,16.5,11.1,79,30.24,10.0,Calm,Calm,-,N/A,,Clear,0,2013-11-13 11:55:00
6:15 AM,16.0,10.8,80,30.22,10.0,Calm,Calm,-,N/A,,Clear,0,2013-11-13 12:15:00
6:35 AM,16.3,10.9,79,30.22,10.0,Calm,Calm,-,N/A,,Clear,0,2013-11-13 12:35:00
6:55 AM,16.3,10.9,79,30.20,10.0,South,3.5,-,N/A,,Clear,180,2013-11-13 12:55:00
7:15 AM,16.5,11.1,79,30.19,10.0,South,3.5,-,N/A,,Clear,180,2013-11-13 13:15:00
7:35 AM,17.2,11.3,78,30.18,10.0,Calm,Calm,-,N/A,,Clear,0,2013-11-13 13:35:00
7:55 AM,18.0,11.7,76,30.18,10.0,South,4.6,-,N/A,,Clear,180,2013-11-13 13:55:00
8:15 AM,19.4,12.6,75,30.16,10.0,South,4.6,-,N/A,,Clear,180,2013-11-13 14:15:00
8:35 AM,21.9,13.1,69,30.16,10.0,SSW,4.6,-,N/A,,Clear,200,2013-11-13 14:35:00
8:55 AM,25.0,14.4,64,30.14,10.0,South,3.5,-,N/A,,Clear,190,2013-11-13 14:55:00
9:15 AM,25.7,14.7,63,30.14,10.0,SSW,5.8,-,N/A,,Clear,200,2013-11-13 15:15:00
9:35 AM,28.4,16.0,60,30.12,10.0,SSW,5.8,-,N/A,,Clear,200,2013-11-13 15:35:00
9:55 AM,31.5,17.4,56,30.10,10.0,South,4.6,-,N/A,,Clear,190,2013-11-13 15:55:00
10:15 AM,34.0,19.6,56,30.09,10.0,SW,8.1,-,N/A,,Clear,220,2013-11-13 16:15:00
10:35 AM,35.8,21.0,55,30.07,10.0,SSW,8.1,16.1,N/A,,Clear,210,2013-11-13 16:35:00
10:55 AM,36.3,21.7,56,30.05,10.0,SSW,10.4,20.7,N/A,,Clear,200,2013-11-13 16:55:00
11:15 AM,38.1,22.1,53,30.03,10.0,South,5.8,17.3,N/A,,Clear,190,2013-11-13 17:15:00
11:35 AM,39.9,23.0,51,30.01,10.0,SSW,8.1,17.3,N/A,,Clear,200,2013-11-13 17:35:00
11:55 AM,40.6,23.5,51,29.99,10.0,SSW,10.4,17.3,N/A,,Clear,210,2013-11-13 17:55:00
12:15 PM,41.9,24.1,49,29.97,10.0,SSW,9.2,17.3,N/A,,Clear,210,2013-11-13 18:15:00
12:35 PM,42.1,23.9,49,29.96,10.0,SSW,9.2,16.1,N/A,,Clear,200,2013-11-13 18:35:00
12:55 PM,42.3,24.1,49,29.94,10.0,South,9.2,18.4,N/A,,Clear,190,2013-11-13 18:55:00
1:15 PM,43.2,24.8,48,29.93,10.0,SSW,6.9,-,N/A,,Clear,210,2013-11-13 19:15:00
1:35 PM,44.1,25.2,47,29.92,10.0,SSW,5.8,19.6,N/A,,Clear,200,2013-11-13 19:35:00
1:55 PM,44.4,25.3,47,29.91,10.0,SSW,11.5,20.7,N/A,,Clear,210,2013-11-13 19:55:00
2:15 PM,44.4,25.5,48,29.90,10.0,SSW,9.2,18.4,N/A,,Clear,210,2013-11-13 20:15:00
2:35 PM,44.6,25.3,47,29.89,10.0,SSW,8.1,-,N/A,,Clear,210,2013-11-13 20:35:00
2:55 PM,43.7,25.5,49,29.89,10.0,SW,4.6,-,N/A,,Clear,230,2013-11-13 20:55:00
3:15 PM,43.0,25.7,51,29.88,10.0,SSW,5.8,-,N/A,,Clear,210,2013-11-13 21:15:00
3:35 PM,43.0,26.1,51,29.88,10.0,SSW,6.9,-,N/A,,Clear,210,2013-11-13 21:35:00
3:55 PM,42.3,26.2,53,29.88,10.0,SSW,6.9,-,N/A,,Clear,210,2013-11-13 21:55:00
4:15 PM,41.9,26.4,54,29.88,10.0,SSW,4.6,-,N/A,,Clear,200,2013-11-13 22:15:00
4:35 PM,40.1,26.6,59,29.86,10.0,SSW,6.9,-,N/A,,Clear,200,2013-11-13 22:35:00
4:55 PM,39.9,26.6,59,29.87,10.0,SSW,8.1,-,N/A,,Clear,200,2013-11-13 22:55:00
5:15 PM,40.3,26.6,58,29.88,10.0,SW,8.1,17.3,N/A,,Clear,230,2013-11-13 23:15:00
5:35 PM,40.1,26.6,59,29.89,10.0,WSW,5.8,-,N/A,,Clear,240,2013-11-13 23:35:00
5:55 PM,39.7,26.6,59,29.89,10.0,SW,8.1,-,N/A,,Clear,220,2013-11-13 23:55:00
6:15 PM,39.2,26.6,61,29.89,10.0,SSW,4.6,-,N/A,,Clear,210,2013-11-14 00:15:00
6:35 PM,39.2,26.6,61,29.89,10.0,SW,5.8,-,N/A,,Clear,220,2013-11-14 00:35:00
6:55 PM,38.5,26.6,62,29.88,10.0,SSW,4.6,-,N/A,,Clear,210,2013-11-14 00:55:00
7:15 PM,37.4,26.4,65,29.89,10.0,SSW,4.6,-,N/A,,Clear,210,2013-11-14 01:15:00
7:35 PM,36.9,26.2,65,29.89,10.0,SSW,5.8,-,N/A,,Clear,210,2013-11-14 01:35:00
7:55 PM,36.7,26.1,65,29.89,10.0,SSW,6.9,-,N/A,,Clear,210,2013-11-14 01:55:00
8:15 PM,36.5,25.7,65,29.89,10.0,SSW,5.8,-,N/A,,Clear,210,2013-11-14 02:15:00
8:35 PM,36.0,25.5,66,29.89,10.0,SSW,3.5,-,N/A,,Clear,210,2013-11-14 02:35:00
8:55 PM,35.6,25.5,67,29.89,10.0,SW,5.8,-,N/A,,Clear,220,2013-11-14 02:55:00
9:15 PM,35.6,25.3,66,29.89,10.0,SSW,5.8,-,N/A,,Clear,210,2013-11-14 03:15:00
9:35 PM,35.6,25.3,66,29.89,10.0,SW,5.8,-,N/A,,Clear,220,2013-11-14 03:35:00
9:55 PM,34.9,25.0,67,29.88,10.0,SSW,3.5,-,N/A,,Clear,200,2013-11-14 03:55:00
10:15 PM,34.9,24.8,67,29.88,10.0,SSW,3.5,-,N/A,,Clear,200,2013-11-14 04:15:00
10:35 PM,34.2,24.8,69,29.88,10.0,Calm,Calm,-,N/A,,Clear,0,2013-11-14 04:35:00
10:55 PM,33.8,24.6,69,29.87,10.0,Calm,Calm,-,N/A,,Clear,0,2013-11-14 04:55:00
11:15 PM,33.8,24.6,69,29.86,10.0,SSW,3.5,-,N/A,,Clear,200,2013-11-14 05:15:00
11:35 PM,33.8,24.6,69,29.86,10.0,Calm,Calm,-,N/A,,Clear,0,2013-11-14 05:35:00
11:55 PM,33.8,24.6,69,29.86,10.0,Calm,Calm,-,N/A,,Clear,0,2013-11-14 05:55:00